Volver al catálogo

CZ-4 DEB

ActivoSSO
NORAD 37616·DEBRIS·🇨🇳 China

Lanzado Sep 3, 1990 desde Taiyuan Satellite Launch Center

Loading…

Próximos Pases (próximas 24 horas)

TLE

EnvejeciendoSource: Space-Track

Época: Sep 7, 2026, 17:58 UTC

1 37616U 90081DC  26250.74923521  .00000073  00000-0  85937-4 0  9995
2 37616  98.9217 222.9989 0101276  38.7423 322.0944 13.92240167728147

Sigue CZ-4 DEB en tiempo real con AllMySat

Download on the App Store